BEIDOU 5

Last updated on Oct. 23, 2020, 5:56 a.m. UTC

1 36828U 10036A   20296.84211538 -.00000148  00000-0  10000-3 0  9996
2 36828  54.1637 181.8019 0099890 234.3743  38.4688  1.00276586 37523
UTC
Height (km)
Latitude
Longitude
Inclination
Orbital Period
UTC large
Height (km)
Speed (km/s)
/
Latitude / Longitude
Inclination (degrees)
Orbital Period (minutes)
Azimuth
Elevation
Range (km)
Doppler Factor
iOS Compass Heading
iOS Angle

Next 30 passes for location: Hong Kong

Rise time Rise Azimuth (degrees) Set time Set Azimuth (degrees) Duration Max altitude (degrees)

No matching passes for this satellites